Time,TemperatureF,DewpointF,PressureIn,WindDirection,WindDirectionDegrees,WindSpeedMPH,WindSpeedGustMPH,Humidity,HourlyPrecipIn,Conditions,Clouds,dailyrainin,SoftwareType,DateUTC
2013-04-11 00:00:00,71.3,52.8,29.81,SW,217,2.0,5.0,52,0.00,CLR,,0.00,WeatherDisplay:10.37,2013-04-11 04:00:00,
2013-04-11 00:05:00,71.2,52.7,29.81,SW,224,4.6,0.0,52,0.00,CLR,,0.00,WeatherDisplay:10.37,2013-04-11 04:05:00,
2013-04-11 00:10:00,71.0,52.5,29.81,SSW,195,2.3,2.3,52,0.00,CLR,,0.00,WeatherDisplay:10.37,2013-04-11 04:10:00,
2013-04-11 00:15:00,70.9,52.9,29.81,SSW,195,0.0,0.0,53,0.00,CLR,,0.00,WeatherDisplay:10.37,2013-04-11 04:15:00,
2013-04-11 00:20:00,70.7,53.2,29.80,SSE,161,4.6,4.6,54,0.00,CLR,,0.00,WeatherDisplay:10.37,2013-04-11 04:20:00,
2013-04-11 00:25:00,70.9,53.4,29.80,SSW,206,3.1,3.1,54,0.00,CLR,,0.00,WeatherDisplay:10.37,2013-04-11 04:25:00,
2013-04-11 00:30:00,71.1,53.6,29.80,SW,216,5.8,5.8,54,0.00,CLR,,0.00,WeatherDisplay:10.37,2013-04-11 04:30:00,
2013-04-11 00:35:00,71.2,53.7,29.80,WSW,240,1.2,1.2,54,0.00,CLR,,0.00,WeatherDisplay:10.37,2013-04-11 04:35:00,
2013-04-11 00:40:00,70.8,53.8,29.81,SSW,212,1.2,0.0,55,0.00,CLR,,0.00,WeatherDisplay:10.37,2013-04-11 04:40:00,
2013-04-11 00:45:00,69.5,53.6,29.81,North,0,0.0,0.0,57,0.00,CLR,,0.00,WeatherDisplay:10.37,2013-04-11 04:45:00,
2013-04-11 00:50:00,68.5,53.6,29.81,North,0,0.0,0.0,59,0.00,CLR,,0.00,WeatherDisplay:10.37,2013-04-11 04:50:00,
2013-04-11 00:55:00,67.4,53.5,29.81,North,0,0.0,0.0,61,0.00,CLR,,0.00,WeatherDisplay:10.37,2013-04-11 04:55:00,
2013-04-11 01:00:00,66.9,53.9,29.81,North,8,0.0,0.0,63,0.00,CLR,,0.00,WeatherDisplay:10.37,2013-04-11 05:00:00,
2013-04-11 01:05:00,64.4,53.2,29.83,NNW,344,11.5,11.5,67,0.00,CLR,,0.00,WeatherDisplay:10.37,2013-04-11 05:05:00,
2013-04-11 01:10:00,64.3,52.3,29.83,NW,311,4.6,4.6,65,0.00,CLR,,0.00,WeatherDisplay:10.37,2013-04-11 05:10:00,
2013-04-11 01:15:00,64.7,51.8,29.83,NE,54,5.8,5.8,63,0.00,CLR,,0.00,WeatherDisplay:10.37,2013-04-11 05:15:00,
2013-04-11 01:20:00,65.2,52.7,29.83,NE,51,6.9,6.9,64,0.00,CLR,,0.00,WeatherDisplay:10.37,2013-04-11 05:20:00,
2013-04-11 01:25:00,65.9,52.5,29.83,NE,47,8.1,8.1,62,0.00,CLR,,0.00,WeatherDisplay:10.37,2013-04-11 05:25:00,
2013-04-11 01:30:00,66.7,53.3,29.84,North,6,6.9,6.9,62,0.00,CLR,,0.00,WeatherDisplay:10.37,2013-04-11 05:30:00,
2013-04-11 01:35:00,67.0,53.5,29.84,North,4,5.8,5.8,62,0.00,CLR,,0.00,WeatherDisplay:10.37,2013-04-11 05:35:00,
2013-04-11 01:40:00,67.1,53.2,29.84,NE,55,1.5,1.5,61,0.00,CLR,,0.00,WeatherDisplay:10.37,2013-04-11 05:40:00,
2013-04-11 01:45:00,66.9,53.5,29.85,ENE,61,3.5,3.5,62,0.00,CLR,,0.00,WeatherDisplay:10.37,2013-04-11 05:45:00,
2013-04-11 01:50:00,66.8,53.4,29.85,NNE,25,3.5,3.5,62,0.00,CLR,,0.00,WeatherDisplay:10.37,2013-04-11 05:50:00,
2013-04-11 01:56:00,66.7,53.7,29.85,NE,40,0.0,0.0,63,0.00,CLR,,0.00,WeatherDisplay:10.37,2013-04-11 05:56:00,
2013-04-11 02:01:00,66.4,53.4,29.85,ENE,66,4.6,4.6,63,0.00,CLR,,0.00,WeatherDisplay:10.37,2013-04-11 06:01:00,
2013-04-11 02:06:00,66.3,53.3,29.85,NE,37,2.3,2.3,63,0.00,CLR,,0.00,WeatherDisplay:10.37,2013-04-11 06:06:00,
2013-04-11 02:11:00,66.2,53.2,29.85,NE,48,3.5,3.5,63,0.00,CLR,,0.00,WeatherDisplay:10.37,2013-04-11 06:11:00,
2013-04-11 02:16:00,66.1,53.6,29.85,NE,42,0.0,0.0,64,0.00,CLR,,0.00,WeatherDisplay:10.37,2013-04-11 06:16:00,
2013-04-11 02:21:00,65.9,53.4,29.84,NE,42,0.0,0.0,64,0.00,CLR,,0.00,WeatherDisplay:10.37,2013-04-11 06:21:00,
2013-04-11 02:26:00,65.7,53.6,29.84,NE,42,0.0,0.0,65,0.00,CLR,,0.00,WeatherDisplay:10.37,2013-04-11 06:26:00,
2013-04-11 02:31:00,65.4,53.3,29.84,NE,42,0.0,0.0,65,0.00,CLR,,0.00,WeatherDisplay:10.37,2013-04-11 06:31:00,
2013-04-11 02:37:00,65.2,53.6,29.84,NE,45,0.0,0.0,66,0.00,CLR,,0.00,WeatherDisplay:10.37,2013-04-11 06:37:00,
2013-04-11 02:42:00,65.0,53.4,29.84,NE,45,0.0,0.0,66,0.00,CLR,,0.00,WeatherDisplay:10.37,2013-04-11 06:42:00,
2013-04-11 02:47:00,64.8,53.2,29.84,NE,45,0.0,0.0,66,0.00,CLR,,0.00,WeatherDisplay:10.37,2013-04-11 06:47:00,
2013-04-11 02:52:00,64.5,53.3,29.83,NE,45,0.0,0.0,67,0.00,CLR,,0.00,WeatherDisplay:10.37,2013-04-11 06:52:00,
2013-04-11 02:57:00,64.2,53.4,29.83,NE,45,0.0,0.0,68,0.00,CLR,,0.00,WeatherDisplay:10.37,2013-04-11 06:57:00,
2013-04-11 03:02:00,63.8,53.0,29.83,NE,45,0.0,0.0,68,0.00,CLR,,0.00,WeatherDisplay:10.37,2013-04-11 07:02:00,
2013-04-11 03:07:00,63.6,53.2,29.83,NE,45,0.0,0.0,69,0.00,CLR,,0.00,WeatherDisplay:10.37,2013-04-11 07:07:00,
2013-04-11 03:12:00,63.5,53.1,29.82,NE,45,0.0,0.0,69,0.00,CLR,,0.00,WeatherDisplay:10.37,2013-04-11 07:12:00,
2013-04-11 03:17:00,63.2,52.9,29.82,NE,45,0.0,0.0,69,0.00,CLR,,0.00,WeatherDisplay:10.37,2013-04-11 07:17:00,
2013-04-11 03:22:00,63.0,53.1,29.82,NE,45,0.0,0.0,70,0.00,CLR,,0.00,WeatherDisplay:10.37,2013-04-11 07:22:00,
2013-04-11 03:27:00,62.9,53.0,29.82,NE,45,0.0,0.0,70,0.00,CLR,,0.00,WeatherDisplay:10.37,2013-04-11 07:27:00,
2013-04-11 03:32:00,62.8,52.9,29.82,NE,45,0.0,0.0,70,0.00,CLR,,0.00,WeatherDisplay:10.37,2013-04-11 07:32:00,
2013-04-11 03:37:00,62.7,52.8,29.81,NE,45,0.0,0.0,70,0.00,CLR,,0.00,WeatherDisplay:10.37,2013-04-11 07:37:00,
2013-04-11 03:42:00,62.5,53.0,29.81,NE,45,0.0,0.0,71,0.00,CLR,,0.00,WeatherDisplay:10.37,2013-04-11 07:42:00,
2013-04-11 03:47:00,62.6,53.1,29.81,NE,45,0.0,0.0,71,0.00,CLR,,0.00,WeatherDisplay:10.37,2013-04-11 07:47:00,
2013-04-11 03:52:00,62.6,53.1,29.81,NE,45,0.0,0.0,71,0.00,CLR,,0.00,WeatherDisplay:10.37,2013-04-11 07:52:00,
2013-04-11 03:57:00,62.5,53.0,29.81,NE,45,0.0,0.0,71,0.00,CLR,,0.00,WeatherDisplay:10.37,2013-04-11 07:57:00,
2013-04-11 04:02:00,62.5,53.0,29.81,North,0,0.0,0.0,71,0.00,CLR,,0.00,WeatherDisplay:10.37,2013-04-11 08:02:00,
2013-04-11 04:07:00,62.1,53.0,29.81,North,0,0.0,0.0,72,0.00,CLR,,0.00,WeatherDisplay:10.37,2013-04-11 08:07:00,
2013-04-11 04:12:00,61.5,52.8,29.81,North,0,0.0,0.0,73,0.00,CLR,,0.00,WeatherDisplay:10.37,2013-04-11 08:12:00,
2013-04-11 04:17:00,60.9,52.9,29.81,North,0,0.0,0.0,75,0.00,CLR,,0.00,WeatherDisplay:10.37,2013-04-11 08:17:00,
2013-04-11 04:22:00,60.4,52.8,29.81,North,0,0.0,0.0,76,0.00,CLR,,0.00,WeatherDisplay:10.37,2013-04-11 08:22:00,
2013-04-11 04:27:00,59.9,52.7,29.81,North,0,0.0,0.0,77,0.00,CLR,,0.00,WeatherDisplay:10.37,2013-04-11 08:27:00,
2013-04-11 04:32:00,59.8,52.6,29.81,North,0,0.0,0.0,77,0.00,CLR,,0.00,WeatherDisplay:10.37,2013-04-11 08:32:00,
2013-04-11 04:38:00,60.0,52.4,29.82,North,350,0.0,0.0,76,0.00,CLR,,0.00,WeatherDisplay:10.37,2013-04-11 08:38:00,
2013-04-11 04:43:00,60.2,52.6,29.82,North,350,0.0,0.0,76,0.00,CLR,,0.00,WeatherDisplay:10.37,2013-04-11 08:43:00,
2013-04-11 04:48:00,60.3,52.3,29.82,North,0,0.0,0.0,75,0.00,CLR,,0.00,WeatherDisplay:10.37,2013-04-11 08:48:00,
2013-04-11 04:53:00,60.4,52.4,29.82,North,0,0.0,0.0,75,0.00,CLR,,0.00,WeatherDisplay:10.37,2013-04-11 08:53:00,
2013-04-11 04:58:00,60.4,52.4,29.81,North,0,0.0,0.0,75,0.00,CLR,,0.00,WeatherDisplay:10.37,2013-04-11 08:58:00,
2013-04-11 05:03:00,60.3,52.7,29.82,North,0,0.0,0.0,76,0.00,CLR,,0.00,WeatherDisplay:10.37,2013-04-11 09:03:00,
2013-04-11 05:08:00,60.0,52.4,29.82,North,0,0.0,0.0,76,0.00,CLR,,0.00,WeatherDisplay:10.37,2013-04-11 09:08:00,
2013-04-11 05:13:00,59.7,52.5,29.82,North,0,0.0,0.0,77,0.00,CLR,,0.00,WeatherDisplay:10.37,2013-04-11 09:13:00,
2013-04-11 05:18:00,59.4,52.2,29.82,North,0,0.0,0.0,77,0.00,CLR,,0.00,WeatherDisplay:10.37,2013-04-11 09:18:00,
2013-04-11 05:23:00,58.9,52.4,29.82,North,0,0.0,0.0,79,0.00,CLR,,0.00,WeatherDisplay:10.37,2013-04-11 09:23:00,
2013-04-11 05:28:00,58.5,52.0,29.82,North,0,0.0,0.0,79,0.00,CLR,,0.00,WeatherDisplay:10.37,2013-04-11 09:28:00,
2013-04-11 05:33:00,58.1,52.0,29.83,North,0,0.0,0.0,80,0.00,CLR,,0.00,WeatherDisplay:10.37,2013-04-11 09:33:00,
2013-04-11 05:38:00,57.6,51.5,29.83,North,0,0.0,0.0,80,0.00,CLR,,0.00,WeatherDisplay:10.37,2013-04-11 09:38:00,
2013-04-11 05:43:00,57.0,51.6,29.83,North,0,0.0,0.0,82,0.00,CLR,,0.00,WeatherDisplay:10.37,2013-04-11 09:43:00,
2013-04-11 05:48:00,56.9,51.8,29.83,North,0,0.0,0.0,83,0.00,CLR,,0.00,WeatherDisplay:10.37,2013-04-11 09:48:00,
2013-04-11 05:53:00,56.9,51.8,29.83,North,0,0.0,0.0,83,0.00,CLR,,0.00,WeatherDisplay:10.37,2013-04-11 09:53:00,
2013-04-11 05:58:00,56.9,51.8,29.83,North,0,0.0,0.0,83,0.00,CLR,,0.00,WeatherDisplay:10.37,2013-04-11 09:58:00,
2013-04-11 06:03:00,57.0,51.9,29.82,North,0,0.0,0.0,83,0.00,CLR,,0.00,WeatherDisplay:10.37,2013-04-11 10:03:00,
2013-04-11 06:08:00,57.1,52.0,29.82,North,0,0.0,0.0,83,0.00,CLR,,0.00,WeatherDisplay:10.37,2013-04-11 10:08:00,
2013-04-11 06:13:00,57.1,52.0,29.82,North,0,0.0,0.0,83,0.00,CLR,,0.00,WeatherDisplay:10.37,2013-04-11 10:13:00,
2013-04-11 06:18:00,57.0,51.9,29.82,North,0,0.0,0.0,83,0.00,CLR,,0.00,WeatherDisplay:10.37,2013-04-11 10:18:00,
2013-04-11 06:23:00,56.8,52.0,29.82,North,0,0.0,0.0,84,0.00,CLR,,0.00,WeatherDisplay:10.37,2013-04-11 10:23:00,
2013-04-11 06:28:00,56.4,51.6,29.82,North,0,0.0,0.0,84,0.00,CLR,,0.00,WeatherDisplay:10.37,2013-04-11 10:28:00,
2013-04-11 06:33:00,55.9,51.1,29.82,North,0,0.0,0.0,84,0.00,CLR,,0.00,WeatherDisplay:10.37,2013-04-11 10:33:00,
2013-04-11 06:38:00,55.3,51.2,29.82,North,0,0.0,0.0,86,0.00,CLR,,0.00,WeatherDisplay:10.37,2013-04-11 10:38:00,
2013-04-11 06:43:00,54.9,50.8,29.82,North,0,0.0,0.0,86,0.00,CLR,,0.00,WeatherDisplay:10.37,2013-04-11 10:43:00,
2013-04-11 06:48:00,54.7,50.9,29.82,North,0,0.0,0.0,87,0.00,CLR,,0.00,WeatherDisplay:10.37,2013-04-11 10:48:00,
2013-04-11 06:53:00,54.5,51.0,29.82,North,0,0.0,0.0,88,0.00,CLR,,0.00,WeatherDisplay:10.37,2013-04-11 10:53:00,
2013-04-11 06:58:00,54.7,51.2,29.82,North,0,0.0,0.0,88,0.00,CLR,,0.00,WeatherDisplay:10.37,2013-04-11 10:58:00,
2013-04-11 07:03:00,54.9,51.4,29.83,North,0,0.0,0.0,88,0.00,CLR,,0.00,WeatherDisplay:10.37,2013-04-11 11:03:00,
2013-04-11 07:08:00,55.2,51.4,29.82,North,0,0.0,0.0,87,0.00,CLR,,0.00,WeatherDisplay:10.37,2013-04-11 11:08:00,
2013-04-11 07:14:00,55.5,51.7,29.82,North,0,0.0,0.0,87,0.00,CLR,,0.00,WeatherDisplay:10.37,2013-04-11 11:14:00,
2013-04-11 07:19:00,55.7,51.6,29.82,North,0,0.0,0.0,86,0.00,CLR,,0.00,WeatherDisplay:10.37,2013-04-11 11:19:00,
2013-04-11 07:24:00,55.7,51.6,29.83,North,0,0.0,0.0,86,0.00,CLR,,0.00,WeatherDisplay:10.37,2013-04-11 11:24:00,
2013-04-11 07:29:00,55.3,51.2,29.83,North,0,0.0,0.0,86,0.00,CLR,,0.00,WeatherDisplay:10.37,2013-04-11 11:29:00,
2013-04-11 07:34:00,54.9,50.8,29.83,North,0,0.0,0.0,86,0.00,CLR,,0.00,WeatherDisplay:10.37,2013-04-11 11:34:00,
2013-04-11 07:39:00,54.8,51.0,29.83,North,0,0.0,0.0,87,0.00,CLR,,0.00,WeatherDisplay:10.37,2013-04-11 11:39:00,
2013-04-11 07:44:00,54.7,51.2,29.83,North,0,0.0,0.0,88,0.00,CLR,,0.00,WeatherDisplay:10.37,2013-04-11 11:44:00,
2013-04-11 07:49:00,54.9,51.4,29.84,North,0,0.0,0.0,88,0.00,CLR,,0.00,WeatherDisplay:10.37,2013-04-11 11:49:00,
2013-04-11 07:54:00,55.2,51.7,29.84,North,0,0.0,0.0,88,0.00,CLR,,0.00,WeatherDisplay:10.37,2013-04-11 11:54:00,
2013-04-11 07:59:00,55.4,51.9,29.84,North,0,0.0,0.0,88,0.00,CLR,,0.00,WeatherDisplay:10.37,2013-04-11 11:59:00,
2013-04-11 08:04:00,55.8,52.0,29.84,North,0,0.0,0.0,87,0.00,CLR,,0.00,WeatherDisplay:10.37,2013-04-11 12:04:00,
2013-04-11 08:09:00,56.1,52.0,29.84,North,0,0.0,0.0,86,0.00,CLR,,0.00,WeatherDisplay:10.37,2013-04-11 12:09:00,
2013-04-11 08:14:00,56.7,52.9,29.84,North,0,0.0,0.0,87,0.00,CLR,,0.00,WeatherDisplay:10.37,2013-04-11 12:14:00,
2013-04-11 08:19:00,57.2,53.0,29.84,North,0,0.0,0.0,86,0.00,CLR,,0.00,WeatherDisplay:10.37,2013-04-11 12:19:00,
2013-04-11 08:24:00,57.7,53.5,29.84,North,0,0.0,0.0,86,0.00,CLR,,0.00,WeatherDisplay:10.37,2013-04-11 12:24:00,
2013-04-11 08:29:00,58.1,53.6,29.84,North,0,0.0,0.0,85,0.00,CLR,,0.00,WeatherDisplay:10.37,2013-04-11 12:29:00,
2013-04-11 08:34:00,58.4,53.3,29.84,North,0,0.0,0.0,83,0.00,CLR,,0.00,WeatherDisplay:10.37,2013-04-11 12:34:00,
2013-04-11 08:39:00,59.0,53.2,29.84,North,0,0.0,0.0,81,0.00,CLR,,0.00,WeatherDisplay:10.37,2013-04-11 12:39:00,
2013-04-11 08:44:00,59.6,53.4,29.84,North,0,0.0,0.0,80,0.00,CLR,,0.00,WeatherDisplay:10.37,2013-04-11 12:44:00,
2013-04-11 08:49:00,60.1,53.9,29.85,North,0,0.0,0.0,80,0.00,CLR,,0.00,WeatherDisplay:10.37,2013-04-11 12:49:00,
2013-04-11 08:54:00,60.4,53.5,29.85,North,0,0.0,0.0,78,0.00,CLR,,0.00,WeatherDisplay:10.37,2013-04-11 12:54:00,
2013-04-11 08:59:00,60.8,53.9,29.85,North,0,0.0,0.0,78,0.00,CLR,,0.00,WeatherDisplay:10.37,2013-04-11 12:59:00,
2013-04-11 09:04:00,61.0,53.7,29.85,North,0,0.0,0.0,77,0.00,CLR,,0.00,WeatherDisplay:10.37,2013-04-11 13:04:00,
2013-04-11 09:09:00,61.3,53.7,29.85,North,0,0.0,0.0,76,0.00,CLR,,0.00,WeatherDisplay:10.37,2013-04-11 13:09:00,
2013-04-11 09:14:00,61.7,54.1,29.84,North,0,0.0,0.0,76,0.00,CLR,,0.00,WeatherDisplay:10.37,2013-04-11 13:14:00,
2013-04-11 09:19:00,62.1,54.1,29.84,North,0,0.0,0.0,75,0.00,CLR,,0.00,WeatherDisplay:10.37,2013-04-11 13:19:00,
2013-04-11 09:24:00,62.6,54.2,29.85,North,0,0.0,0.0,74,0.00,CLR,,0.00,WeatherDisplay:10.37,2013-04-11 13:24:00,
2013-04-11 09:29:00,63.2,55.1,29.84,North,0,0.0,0.0,75,0.00,CLR,,0.00,WeatherDisplay:10.37,2013-04-11 13:29:00,
2013-04-11 09:34:00,64.0,54.8,29.84,North,0,0.0,0.0,72,0.00,CLR,,0.00,WeatherDisplay:10.37,2013-04-11 13:34:00,
2013-04-11 09:39:00,64.9,54.9,29.84,North,0,0.0,0.0,70,0.00,CLR,,0.00,WeatherDisplay:10.37,2013-04-11 13:39:00,
2013-04-11 09:44:00,66.0,55.5,29.85,North,0,0.0,0.0,69,0.00,CLR,,0.00,WeatherDisplay:10.37,2013-04-11 13:44:00,
2013-04-11 09:49:00,66.9,56.0,29.84,North,0,0.0,0.0,68,0.00,CLR,,0.00,WeatherDisplay:10.37,2013-04-11 13:49:00,
2013-04-11 09:54:00,67.5,55.7,29.84,North,0,0.0,0.0,66,0.00,CLR,,0.00,WeatherDisplay:10.37,2013-04-11 13:54:00,
2013-04-11 09:59:00,67.8,55.2,29.84,NNE,23,2.3,2.3,64,0.00,CLR,,0.00,WeatherDisplay:10.37,2013-04-11 13:59:00,
2013-04-11 10:04:00,68.2,56.0,29.84,NNE,23,0.0,0.0,65,0.00,CLR,,0.00,WeatherDisplay:10.37,2013-04-11 14:04:00,
2013-04-11 10:09:00,68.6,55.9,29.84,NNE,23,0.0,0.0,64,0.00,CLR,,0.00,WeatherDisplay:10.37,2013-04-11 14:09:00,
2013-04-11 10:14:00,69.2,55.6,29.84,NNE,23,0.0,0.0,62,0.00,CLR,,0.00,WeatherDisplay:10.37,2013-04-11 14:14:00,
2013-04-11 10:19:00,69.5,55.9,29.84,NNE,23,0.0,0.0,62,0.00,CLR,,0.00,WeatherDisplay:10.37,2013-04-11 14:19:00,
2013-04-11 10:24:00,69.4,55.8,29.84,North,349,1.2,0.0,62,0.00,CLR,,0.00,WeatherDisplay:10.37,2013-04-11 14:24:00,
2013-04-11 10:29:00,69.5,55.5,29.83,SSE,154,4.6,4.6,61,0.00,CLR,,0.00,WeatherDisplay:10.37,2013-04-11 14:29:00,
2013-04-11 10:34:00,69.7,55.6,29.83,East,93,1.2,0.0,61,0.00,CLR,,0.00,WeatherDisplay:10.37,2013-04-11 14:34:00,
2013-04-11 10:39:00,70.0,55.5,29.83,NNW,330,3.5,3.5,60,0.00,CLR,,0.00,WeatherDisplay:10.37,2013-04-11 14:39:00,
2013-04-11 10:44:00,70.2,55.7,29.83,WSW,253,1.2,0.0,60,0.00,CLR,,0.00,WeatherDisplay:10.37,2013-04-11 14:44:00,
2013-04-11 10:50:00,70.5,56.4,29.83,WSW,253,0.0,0.0,61,0.00,CLR,,0.00,WeatherDisplay:10.37,2013-04-11 14:50:00,
2013-04-11 10:55:00,70.8,56.2,29.83,WNW,301,2.3,0.0,60,0.00,CLR,,0.00,WeatherDisplay:10.37,2013-04-11 14:55:00,
2013-04-11 11:00:00,71.0,56.4,29.83,NW,313,2.3,2.3,60,0.00,CLR,,0.00,WeatherDisplay:10.37,2013-04-11 15:00:00,
2013-04-11 11:05:00,71.6,57.4,29.83,North,0,0.0,0.0,61,0.00,CLR,,0.00,WeatherDisplay:10.37,2013-04-11 15:05:00,
2013-04-11 11:10:00,71.7,57.1,29.83,WSW,253,3.5,3.5,60,0.00,CLR,,0.00,WeatherDisplay:10.37,2013-04-11 15:10:00,
2013-04-11 11:15:00,72.0,57.4,29.82,WSW,244,1.2,1.2,60,0.00,CLR,,0.00,WeatherDisplay:10.37,2013-04-11 15:15:00,
2013-04-11 11:20:00,72.3,57.6,29.82,SW,217,0.0,0.0,60,0.00,CLR,,0.00,WeatherDisplay:10.37,2013-04-11 15:20:00,
2013-04-11 11:25:00,72.5,57.4,29.82,SW,217,0.0,0.0,59,0.00,CLR,,0.00,WeatherDisplay:10.37,2013-04-11 15:25:00,
2013-04-11 11:30:00,73.2,58.5,29.82,SW,236,3.7,3.7,60,0.00,CLR,,0.00,WeatherDisplay:10.37,2013-04-11 15:30:00,
2013-04-11 11:35:00,73.7,58.0,29.81,NW,306,0.0,0.0,58,0.00,CLR,,0.00,WeatherDisplay:10.37,2013-04-11 15:35:00,
2013-04-11 11:40:00,74.1,57.4,29.81,NNW,342,3.5,3.5,56,0.00,CLR,,0.00,WeatherDisplay:10.37,2013-04-11 15:40:00,
2013-04-11 11:45:00,74.2,57.5,29.81,NNW,336,0.7,0.7,56,0.00,CLR,,0.00,WeatherDisplay:10.37,2013-04-11 15:45:00,
2013-04-11 11:50:00,74.5,57.8,29.81,WSW,257,0.0,0.0,56,0.00,CLR,,0.00,WeatherDisplay:10.37,2013-04-11 15:50:00,
2013-04-11 11:55:00,74.9,57.6,29.81,NW,322,5.8,5.8,55,0.00,CLR,,0.00,WeatherDisplay:10.37,2013-04-11 15:55:00,
2013-04-11 12:00:00,75.4,57.6,29.81,West,260,2.3,0.0,54,0.00,CLR,,0.00,WeatherDisplay:10.37,2013-04-11 16:00:00,
2013-04-11 12:05:00,75.9,58.1,29.80,SW,229,2.3,0.0,54,0.00,CLR,,0.00,WeatherDisplay:10.37,2013-04-11 16:05:00,
2013-04-11 12:10:00,76.3,58.4,29.80,West,272,2.3,0.0,54,0.00,CLR,,0.00,WeatherDisplay:10.37,2013-04-11 16:10:00,
2013-04-11 12:15:00,76.5,58.6,29.80,NNW,329,4.6,4.6,54,0.00,CLR,,0.00,WeatherDisplay:10.37,2013-04-11 16:15:00,
2013-04-11 12:20:00,77.0,59.1,29.80,ESE,102,1.4,1.4,54,0.00,CLR,,0.00,WeatherDisplay:10.37,2013-04-11 16:20:00,
2013-04-11 12:25:00,77.9,58.3,29.79,SE,130,4.8,4.8,51,0.00,CLR,,0.00,WeatherDisplay:10.37,2013-04-11 16:25:00,
2013-04-11 12:30:00,78.2,58.6,29.79,SW,233,5.5,5.5,51,0.00,CLR,,0.00,WeatherDisplay:10.37,2013-04-11 16:30:00,
2013-04-11 12:35:00,78.4,58.2,29.79,South,189,4.6,4.6,50,0.00,CLR,,0.00,WeatherDisplay:10.37,2013-04-11 16:35:00,
2013-04-11 12:40:00,78.8,58.6,29.78,SW,216,4.7,4.7,50,0.00,CLR,,0.00,WeatherDisplay:10.37,2013-04-11 16:40:00,
2013-04-11 12:46:00,79.1,58.3,29.78,South,169,4.4,4.4,49,0.00,CLR,,0.00,WeatherDisplay:10.37,2013-04-11 16:46:00,
2013-04-11 12:51:00,79.3,58.5,29.77,SW,227,4.6,4.6,49,0.00,CLR,,0.00,WeatherDisplay:10.37,2013-04-11 16:51:00,
2013-04-11 12:56:00,79.4,58.0,29.77,SE,136,4.6,4.6,48,0.00,CLR,,0.00,WeatherDisplay:10.37,2013-04-11 16:56:00,
2013-04-11 13:01:00,79.4,58.0,29.77,SSW,205,1.2,0.0,48,0.00,CLR,,0.00,WeatherDisplay:10.37,2013-04-11 17:01:00,
2013-04-11 13:06:00,79.4,57.4,29.76,South,172,4.6,4.6,47,0.00,CLR,,0.00,WeatherDisplay:10.37,2013-04-11 17:06:00,
2013-04-11 13:11:00,79.4,59.1,29.76,South,174,9.2,9.2,50,0.00,CLR,,0.00,WeatherDisplay:10.37,2013-04-11 17:11:00,
2013-04-11 13:16:00,80.0,57.4,29.75,South,179,4.6,4.6,46,0.00,CLR,,0.00,WeatherDisplay:10.37,2013-04-11 17:16:00,
2013-04-11 13:21:00,80.4,55.2,29.75,SW,216,5.8,5.8,42,0.00,CLR,,0.00,WeatherDisplay:10.37,2013-04-11 17:21:00,
2013-04-11 13:26:00,80.6,56.7,29.75,NW,305,6.9,6.9,44,0.00,CLR,,0.00,WeatherDisplay:10.37,2013-04-11 17:26:00,
2013-04-11 13:31:00,80.7,56.8,29.74,SSW,199,6.9,6.9,44,0.00,CLR,,0.00,WeatherDisplay:10.37,2013-04-11 17:31:00,
2013-04-11 13:36:00,80.7,56.1,29.74,SSW,195,1.2,1.2,43,0.00,CLR,,0.00,WeatherDisplay:10.37,2013-04-11 17:36:00,
2013-04-11 13:41:00,80.9,56.9,29.74,SW,220,4.6,4.6,44,0.00,CLR,,0.00,WeatherDisplay:10.37,2013-04-11 17:41:00,
2013-04-11 13:46:00,81.4,56.1,29.74,WSW,241,7.0,7.0,42,0.00,CLR,,0.00,WeatherDisplay:10.37,2013-04-11 17:46:00,
2013-04-11 13:52:00,81.2,54.6,29.74,WSW,240,6.9,6.9,40,0.00,CLR,,0.00,WeatherDisplay:10.37,2013-04-11 17:52:00,
2013-04-11 13:57:00,80.7,54.1,29.74,SSW,200,6.9,6.9,40,0.00,CLR,,0.00,WeatherDisplay:10.37,2013-04-11 17:57:00,
2013-04-11 14:02:00,80.5,53.3,29.74,SSW,198,9.2,9.2,39,0.00,CLR,,0.00,WeatherDisplay:10.37,2013-04-11 18:02:00,
2013-04-11 14:07:00,80.7,53.4,29.74,SSE,165,5.0,5.0,39,0.00,CLR,,0.00,WeatherDisplay:10.37,2013-04-11 18:07:00,
2013-04-11 14:12:00,81.0,51.5,29.74,SSW,200,8.1,8.1,36,0.00,CLR,,0.00,WeatherDisplay:10.37,2013-04-11 18:12:00,
2013-04-11 14:17:00,81.1,50.9,29.73,South,185,10.4,10.4,35,0.00,CLR,,0.00,WeatherDisplay:10.37,2013-04-11 18:17:00,
2013-04-11 14:22:00,80.8,49.8,29.73,South,169,12.7,12.7,34,0.00,CLR,,0.00,WeatherDisplay:10.37,2013-04-11 18:22:00,
2013-04-11 14:27:00,80.7,46.4,29.73,SW,220,10.4,10.4,30,0.00,CLR,,0.00,WeatherDisplay:10.37,2013-04-11 18:27:00,
2013-04-11 14:32:00,80.7,48.1,29.73,South,176,8.2,8.2,32,0.00,CLR,,0.00,WeatherDisplay:10.37,2013-04-11 18:32:00,
2013-04-11 14:37:00,80.7,49.7,29.73,SSW,213,7.6,7.6,34,0.00,CLR,,0.00,WeatherDisplay:10.37,2013-04-11 18:37:00,
2013-04-11 14:42:00,80.9,49.1,29.72,SSW,212,9.2,9.2,33,0.00,CLR,,0.00,WeatherDisplay:10.37,2013-04-11 18:42:00,
2013-04-11 14:48:00,80.9,48.3,29.72,WSW,241,10.4,10.4,32,0.00,CLR,,0.00,WeatherDisplay:10.37,2013-04-11 18:48:00,
2013-04-11 14:53:00,81.3,49.4,29.72,SSW,202,9.2,9.2,33,0.00,CLR,,0.00,WeatherDisplay:10.37,2013-04-11 18:53:00,
2013-04-11 14:58:00,81.3,47.8,29.72,WSW,257,10.4,10.4,31,0.00,CLR,,0.00,WeatherDisplay:10.37,2013-04-11 18:58:00,
2013-04-11 15:03:00,81.6,48.9,29.71,SSW,196,10.4,10.4,32,0.00,CLR,,0.00,WeatherDisplay:10.37,2013-04-11 19:03:00,
2013-04-11 15:08:00,81.9,50.0,29.71,South,191,5.8,5.8,33,0.00,CLR,,0.00,WeatherDisplay:10.37,2013-04-11 19:08:00,
2013-04-11 15:13:00,82.1,47.6,29.71,West,263,4.6,4.6,30,0.00,CLR,,0.00,WeatherDisplay:10.37,2013-04-11 19:13:00,
2013-04-11 15:18:00,82.5,64.2,29.70,SW,216,10.4,10.4,54,0.00,CLR,,0.00,WeatherDisplay:10.37,2013-04-11 19:18:00,
2013-04-11 15:23:00,82.4,47.8,29.70,SE,137,8.1,8.1,30,0.00,CLR,,0.00,WeatherDisplay:10.37,2013-04-11 19:23:00,
2013-04-11 15:28:00,82.4,49.6,29.70,SSW,209,9.1,9.1,32,0.00,CLR,,0.00,WeatherDisplay:10.37,2013-04-11 19:28:00,
2013-04-11 15:33:00,81.8,51.5,29.70,SSW,195,10.4,10.4,35,0.00,CLR,,0.00,WeatherDisplay:10.37,2013-04-11 19:33:00,
2013-04-11 15:38:00,81.0,51.5,29.69,South,189,12.7,12.7,36,0.00,CLR,,0.00,WeatherDisplay:10.37,2013-04-11 19:38:00,
2013-04-11 15:43:00,80.7,66.0,29.69,WSW,243,10.4,10.4,61,0.00,CLR,,0.00,WeatherDisplay:10.37,2013-04-11 19:43:00,
2013-04-11 15:48:00,80.6,67.3,29.68,SSW,203,5.5,5.5,64,0.00,CLR,,0.00,WeatherDisplay:10.37,2013-04-11 19:48:00,
2013-04-11 15:53:00,80.5,53.3,29.68,SSE,164,8.3,8.3,39,0.00,CLR,,0.00,WeatherDisplay:10.37,2013-04-11 19:53:00,
2013-04-11 15:58:00,80.4,53.2,29.68,South,172,3.5,3.5,39,0.00,CLR,,0.00,WeatherDisplay:10.37,2013-04-11 19:58:00,
2013-04-11 16:04:00,80.5,52.6,29.68,SSW,200,6.9,6.9,38,0.00,CLR,,0.00,WeatherDisplay:10.37,2013-04-11 20:04:00,
2013-04-11 16:09:00,80.5,66.3,29.68,SSW,208,8.1,8.1,62,0.00,CLR,,0.00,WeatherDisplay:10.37,2013-04-11 20:09:00,
2013-04-11 16:14:00,80.7,52.7,29.67,SW,226,4.6,4.6,38,0.00,CLR,,0.00,WeatherDisplay:10.37,2013-04-11 20:14:00,
2013-04-11 16:19:00,80.7,52.7,29.67,SW,215,5.9,5.9,38,0.00,CLR,,0.00,WeatherDisplay:10.37,2013-04-11 20:19:00,
2013-04-11 16:24:00,80.6,53.4,29.67,SW,222,6.9,6.9,39,0.00,CLR,,0.00,WeatherDisplay:10.37,2013-04-11 20:24:00,
2013-04-11 16:29:00,80.7,54.8,29.67,NNE,24,3.5,3.5,41,0.00,CLR,,0.00,WeatherDisplay:10.37,2013-04-11 20:29:00,
2013-04-11 16:34:00,80.4,64.3,29.67,SSE,168,8.3,8.3,58,0.00,CLR,,0.00,WeatherDisplay:10.37,2013-04-11 20:34:00,
2013-04-11 16:39:00,80.1,54.9,29.67,East,93,5.8,5.8,42,0.00,CLR,,0.00,WeatherDisplay:10.37,2013-04-11 20:39:00,
2013-04-11 16:44:00,79.7,53.9,29.67,SE,141,8.7,8.7,41,0.00,CLR,,0.00,WeatherDisplay:10.37,2013-04-11 20:44:00,
2013-04-11 16:49:00,79.6,54.5,29.67,SW,216,6.9,6.9,42,0.00,CLR,,0.00,WeatherDisplay:10.37,2013-04-11 20:49:00,
2013-04-11 16:54:00,79.4,54.3,29.67,SSW,210,7.7,7.7,42,0.00,CLR,,0.00,WeatherDisplay:10.37,2013-04-11 20:54:00,
2013-04-11 16:59:00,79.4,63.3,29.67,WSW,256,8.1,8.1,58,0.00,CLR,,0.00,WeatherDisplay:10.37,2013-04-11 20:59:00,
2013-04-11 17:04:00,79.2,52.8,29.67,SE,144,11.5,11.5,40,0.00,CLR,,0.00,WeatherDisplay:10.37,2013-04-11 21:04:00,
2013-04-11 17:09:00,79.1,53.4,29.67,East,92,9.2,9.2,41,0.00,CLR,,0.00,WeatherDisplay:10.37,2013-04-11 21:09:00,
2013-04-11 17:14:00,78.8,46.4,29.67,South,188,10.4,10.4,32,0.00,CLR,,0.00,WeatherDisplay:10.37,2013-04-11 21:14:00,
2013-04-11 17:19:00,78.8,47.3,29.67,SW,232,10.4,10.4,33,0.00,CLR,,0.00,WeatherDisplay:10.37,2013-04-11 21:19:00,
2013-04-11 17:24:00,78.7,53.7,29.67,ESE,123,8.1,8.1,42,0.00,CLR,,0.00,WeatherDisplay:10.37,2013-04-11 21:24:00,
2013-04-11 17:29:00,78.4,62.4,29.67,South,186,9.2,9.2,58,0.00,CLR,,0.00,WeatherDisplay:10.37,2013-04-11 21:29:00,
2013-04-11 17:34:00,78.4,53.4,29.66,East,96,5.8,5.8,42,0.00,CLR,,0.00,WeatherDisplay:10.37,2013-04-11 21:34:00,
2013-04-11 17:39:00,78.3,52.0,29.66,SSE,162,9.2,9.2,40,0.00,CLR,,0.00,WeatherDisplay:10.37,2013-04-11 21:39:00,
2013-04-11 17:44:00,78.4,66.1,29.66,SSW,199,8.1,8.1,66,0.00,CLR,,0.00,WeatherDisplay:10.37,2013-04-11 21:44:00,
2013-04-11 17:49:00,78.3,62.3,29.66,South,174,6.9,6.9,58,0.00,CLR,,0.00,WeatherDisplay:10.37,2013-04-11 21:49:00,
2013-04-11 17:54:00,78.4,53.4,29.66,SSW,199,5.8,5.8,42,0.00,CLR,,0.00,WeatherDisplay:10.37,2013-04-11 21:54:00,
2013-04-11 17:59:00,78.8,53.8,29.66,SSW,200,5.8,5.8,42,0.00,CLR,,0.00,WeatherDisplay:10.37,2013-04-11 21:59:00,
2013-04-11 18:04:00,79.0,63.0,29.66,SSW,206,6.9,6.9,58,0.00,CLR,,0.00,WeatherDisplay:10.37,2013-04-11 22:04:00,
2013-04-11 18:09:00,78.8,53.8,29.66,SSE,150,9.2,9.2,42,0.00,CLR,,0.00,WeatherDisplay:10.37,2013-04-11 22:09:00,
2013-04-11 18:14:00,78.3,54.0,29.66,ESE,123,10.5,10.5,43,0.00,CLR,,0.00,WeatherDisplay:10.37,2013-04-11 22:14:00,
2013-04-11 18:19:00,78.1,67.1,29.66,SW,229,11.5,11.5,69,0.00,CLR,,0.00,WeatherDisplay:10.37,2013-04-11 22:19:00,
2013-04-11 18:24:00,77.9,66.9,29.66,SW,226,10.4,10.4,69,0.00,CLR,,0.00,WeatherDisplay:10.37,2013-04-11 22:24:00,
2013-04-11 18:29:00,78.0,54.9,29.66,SW,215,8.8,8.8,45,0.00,CLR,,0.00,WeatherDisplay:10.37,2013-04-11 22:29:00,
2013-04-11 18:34:00,77.9,54.2,29.66,SSE,164,10.4,10.4,44,0.00,CLR,,0.00,WeatherDisplay:10.37,2013-04-11 22:34:00,
2013-04-11 18:39:00,77.8,54.1,29.66,WSW,251,10.4,10.4,44,0.00,CLR,,0.00,WeatherDisplay:10.37,2013-04-11 22:39:00,
2013-04-11 18:44:00,77.5,53.9,29.66,ESE,121,10.4,10.4,44,0.00,CLR,,0.00,WeatherDisplay:10.37,2013-04-11 22:44:00,
2013-04-11 18:49:00,77.3,53.7,29.66,SW,230,9.2,9.2,44,0.00,CLR,,0.00,WeatherDisplay:10.37,2013-04-11 22:49:00,
2013-04-11 18:54:00,77.2,67.1,29.66,SW,219,8.3,8.3,71,0.00,CLR,,0.00,WeatherDisplay:10.37,2013-04-11 22:54:00,
2013-04-11 18:59:00,76.8,54.5,29.66,SSW,205,9.1,9.1,46,0.00,CLR,,0.00,WeatherDisplay:10.37,2013-04-11 22:59:00,
2013-04-11 19:04:00,76.5,54.2,29.66,ESE,116,11.5,11.5,46,0.00,CLR,,0.00,WeatherDisplay:10.37,2013-04-11 23:04:00,
2013-04-11 19:09:00,76.2,54.5,29.66,SW,220,9.2,9.2,47,0.00,CLR,,0.00,WeatherDisplay:10.37,2013-04-11 23:09:00,
2013-04-11 19:14:00,76.0,67.1,29.66,WSW,237,6.9,6.9,74,0.00,CLR,,0.00,WeatherDisplay:10.37,2013-04-11 23:14:00,
2013-04-11 19:19:00,75.9,60.1,29.67,South,191,8.1,8.1,58,0.00,CLR,,0.00,WeatherDisplay:10.37,2013-04-11 23:19:00,
2013-04-11 19:24:00,75.7,54.6,29.67,SW,217,10.4,10.4,48,0.00,CLR,,0.00,WeatherDisplay:10.37,2013-04-11 23:24:00,
2013-04-11 19:29:00,75.4,43.5,29.67,South,189,8.1,8.1,32,0.00,CLR,,0.00,WeatherDisplay:10.37,2013-04-11 23:29:00,
2013-04-11 19:34:00,75.2,54.2,29.67,SSE,150,11.5,11.5,48,0.00,CLR,,0.00,WeatherDisplay:10.37,2013-04-11 23:34:00,
2013-04-11 19:39:00,75.0,54.5,29.67,SSW,213,8.9,8.9,49,0.00,CLR,,0.00,WeatherDisplay:10.37,2013-04-11 23:39:00,
2013-04-11 19:44:00,75.0,66.1,29.67,ESE,109,8.1,8.1,74,0.00,CLR,,0.00,WeatherDisplay:10.37,2013-04-11 23:44:00,
2013-04-11 19:49:00,74.8,54.4,29.67,SSW,206,9.2,9.2,49,0.00,CLR,,0.00,WeatherDisplay:10.37,2013-04-11 23:49:00,
2013-04-11 19:55:00,74.6,54.2,29.67,SSE,168,4.9,4.9,49,0.00,CLR,,0.00,WeatherDisplay:10.37,2013-04-11 23:55:00,
2013-04-11 20:00:00,74.3,54.5,29.67,ENE,69,4.6,4.6,50,0.00,CLR,,0.00,WeatherDisplay:10.37,2013-04-12 00:00:00,
2013-04-11 20:05:00,74.0,54.7,29.67,SW,216,6.0,6.0,51,0.00,CLR,,0.00,WeatherDisplay:10.37,2013-04-12 00:05:00,
2013-04-11 20:10:00,73.9,54.6,29.67,South,175,8.1,8.1,51,0.00,CLR,,0.00,WeatherDisplay:10.37,2013-04-12 00:10:00,
2013-04-11 20:15:00,73.8,58.1,29.67,SW,217,8.1,8.1,58,0.00,CLR,,0.00,WeatherDisplay:10.37,2013-04-12 00:15:00,
2013-04-11 20:20:00,73.7,55.0,29.67,ENE,59,3.7,3.7,52,0.00,CLR,,0.00,WeatherDisplay:10.37,2013-04-12 00:20:00,
2013-04-11 20:25:00,73.5,55.3,29.68,SSW,202,8.1,8.1,53,0.00,CLR,,0.00,WeatherDisplay:10.37,2013-04-12 00:25:00,
2013-04-11 20:30:00,73.4,55.2,29.68,SE,140,11.5,11.5,53,0.00,CLR,,0.00,WeatherDisplay:10.37,2013-04-12 00:30:00,
2013-04-11 20:35:00,73.4,55.2,29.68,South,185,6.9,6.9,53,0.00,CLR,,0.00,WeatherDisplay:10.37,2013-04-12 00:35:00,
2013-04-11 20:40:00,73.3,57.6,29.68,South,181,11.5,11.5,58,0.00,CLR,,0.00,WeatherDisplay:10.37,2013-04-12 00:40:00,
2013-04-11 20:45:00,73.2,57.5,29.68,South,184,9.8,9.8,58,0.00,CLR,,0.00,WeatherDisplay:10.37,2013-04-12 00:45:00,
2013-04-11 20:50:00,73.0,55.4,29.68,SE,145,12.7,12.7,54,0.00,CLR,,0.00,WeatherDisplay:10.37,2013-04-12 00:50:00,
2013-04-11 20:55:00,72.9,55.3,29.68,South,178,9.2,9.2,54,0.00,CLR,,0.00,WeatherDisplay:10.37,2013-04-12 00:55:00,
2013-04-11 21:00:00,72.8,55.2,29.68,South,189,11.5,11.5,54,0.00,CLR,,0.00,WeatherDisplay:10.37,2013-04-12 01:00:00,
2013-04-11 21:05:00,72.7,55.1,29.67,SW,224,8.1,8.1,54,0.00,CLR,,0.00,WeatherDisplay:10.37,2013-04-12 01:05:00,
2013-04-11 21:10:00,72.5,55.4,29.68,South,176,15.0,15.0,55,0.00,CLR,,0.00,WeatherDisplay:10.37,2013-04-12 01:10:00,
2013-04-11 21:15:00,72.5,55.4,29.68,West,277,10.4,10.4,55,0.00,CLR,,0.00,WeatherDisplay:10.37,2013-04-12 01:15:00,
2013-04-11 21:20:00,72.3,56.7,29.68,SW,226,10.3,10.3,58,0.00,CLR,,0.00,WeatherDisplay:10.37,2013-04-12 01:20:00,
2013-04-11 21:25:00,72.1,55.5,29.68,West,260,9.2,9.2,56,0.00,CLR,,0.00,WeatherDisplay:10.37,2013-04-12 01:25:00,
2013-04-11 21:30:00,72.1,55.5,29.68,South,189,9.2,9.2,56,0.00,CLR,,0.00,WeatherDisplay:10.37,2013-04-12 01:30:00,
2013-04-11 21:35:00,71.9,55.3,29.67,WSW,243,12.7,12.7,56,0.00,CLR,,0.00,WeatherDisplay:10.37,2013-04-12 01:35:00,
2013-04-11 21:40:00,71.9,55.3,29.67,SW,230,10.4,10.4,56,0.00,CLR,,0.00,WeatherDisplay:10.37,2013-04-12 01:40:00,
2013-04-11 21:45:00,71.8,56.2,29.67,South,185,13.8,13.8,58,0.00,CLR,,0.00,WeatherDisplay:10.37,2013-04-12 01:45:00,
2013-04-11 21:50:00,71.6,55.1,29.68,SSW,193,5.8,5.8,56,0.00,CLR,,0.00,WeatherDisplay:10.37,2013-04-12 01:50:00,
2013-04-11 21:55:00,71.4,54.9,29.68,ESE,117,8.1,8.1,56,0.00,CLR,,0.00,WeatherDisplay:10.37,2013-04-12 01:55:00,
2013-04-11 22:00:00,71.4,55.9,29.67,SSW,192,7.6,7.6,58,0.00,CLR,,0.00,WeatherDisplay:10.37,2013-04-12 02:00:00,
2013-04-11 22:05:00,71.5,55.0,29.67,South,186,6.9,6.9,56,0.00,CLR,,0.00,WeatherDisplay:10.37,2013-04-12 02:05:00,
2013-04-11 22:10:00,71.4,54.9,29.67,SW,229,6.2,6.2,56,0.00,CLR,,0.00,WeatherDisplay:10.37,2013-04-12 02:10:00,
2013-04-11 22:15:00,71.2,54.7,29.67,SW,220,9.1,9.1,56,0.00,CLR,,0.00,WeatherDisplay:10.37,2013-04-12 02:15:00,
2013-04-11 22:20:00,71.2,55.7,29.67,South,179,6.9,6.9,58,0.00,CLR,,0.00,WeatherDisplay:10.37,2013-04-12 02:20:00,
2013-04-11 22:25:00,71.1,54.6,29.67,SSW,205,8.1,8.1,56,0.00,CLR,,0.00,WeatherDisplay:10.37,2013-04-12 02:25:00,
2013-04-11 22:30:00,71.1,54.6,29.67,SSW,203,8.1,8.1,56,0.00,CLR,,0.00,WeatherDisplay:10.37,2013-04-12 02:30:00,
2013-04-11 22:35:00,71.1,54.6,29.67,SSW,199,8.1,8.1,56,0.00,CLR,,0.00,WeatherDisplay:10.37,2013-04-12 02:35:00,
2013-04-11 22:40:00,71.0,55.0,29.67,SSW,213,8.1,8.1,57,0.00,CLR,,0.00,WeatherDisplay:10.37,2013-04-12 02:40:00,
2013-04-11 22:45:00,71.0,55.0,29.67,East,100,6.9,6.9,57,0.00,CLR,,0.00,WeatherDisplay:10.37,2013-04-12 02:45:00,
2013-04-11 22:50:00,70.9,55.4,29.67,West,277,4.6,4.6,58,0.00,CLR,,0.00,WeatherDisplay:10.37,2013-04-12 02:50:00,
2013-04-11 22:55:00,70.7,55.2,29.67,South,178,1.9,1.9,58,0.00,CLR,,0.00,WeatherDisplay:10.37,2013-04-12 02:55:00,
2013-04-11 23:00:00,70.6,55.6,29.67,SSE,152,0.0,0.0,59,0.00,CLR,,0.00,WeatherDisplay:10.37,2013-04-12 03:00:00,
2013-04-11 23:05:00,70.2,55.7,29.67,SW,233,4.6,0.0,60,0.00,CLR,,0.00,WeatherDisplay:10.37,2013-04-12 03:05:00,
2013-04-11 23:10:00,69.8,54.8,29.67,South,175,8.1,8.1,59,0.00,CLR,,0.00,WeatherDisplay:10.37,2013-04-12 03:10:00,
2013-04-11 23:15:00,69.8,55.3,29.67,SSW,198,5.2,5.2,60,0.00,CLR,,0.00,WeatherDisplay:10.37,2013-04-12 03:15:00,
2013-04-11 23:20:00,69.8,55.3,29.67,SSE,160,4.6,4.6,60,0.00,CLR,,0.00,WeatherDisplay:10.37,2013-04-12 03:20:00,
2013-04-11 23:25:00,70.0,55.5,29.66,SE,130,9.2,9.2,60,0.00,CLR,,0.00,WeatherDisplay:10.37,2013-04-12 03:25:00,
2013-04-11 23:30:00,70.2,55.2,29.66,SSE,148,12.7,12.7,59,0.00,CLR,,0.00,WeatherDisplay:10.37,2013-04-12 03:30:00,
2013-04-11 23:35:00,70.3,54.8,29.66,SW,227,9.5,9.5,58,0.00,CLR,,0.00,WeatherDisplay:10.37,2013-04-12 03:35:00,
2013-04-11 23:40:00,70.4,55.8,29.66,SW,227,12.7,12.7,60,0.00,CLR,,0.00,WeatherDisplay:10.37,2013-04-12 03:40:00,
2013-04-11 23:45:00,70.4,56.3,29.65,SSW,195,10.4,10.4,61,0.00,CLR,,0.00,WeatherDisplay:10.37,2013-04-12 03:45:00,
2013-04-11 23:50:00,70.3,56.2,29.65,South,182,8.1,8.1,61,0.00,CLR,,0.00,WeatherDisplay:10.37,2013-04-12 03:50:00,
2013-04-11 23:55:00,70.3,56.2,29.65,SSE,158,9.2,9.2,61,0.00,CLR,,0.00,WeatherDisplay:10.37,2013-04-12 03:55:00,